Terminal Aerodrome Forecast
Issued by NWS

Home | Current Version | Previous Version | Graphics & Text | Print | Product List | Glossary On
Versions: 1 2 3 4 5 6 7 8 9 10 11 12 13 14 15 16 17 18 19 20 21 22 23 24 25 26 27 28 29 30 31
000
FTUS43 KGRB 201900 AAA
TAFRHI
TAF AMD
KRHI 201919Z 2019/2118 34009KT P6SM SCT026 BKN035
     FM202200 34007KT P6SM BKN030
     FM210300 35004KT P6SM BKN035
     FM211400 05004KT P6SM SCT035=

USA.gov is the U.S. government's official web portal to all federal, state and local government web resources and services.